Regional Weather Roundup
Issued by NWS Newport/Morehead, NC

Current Version | Previous Version | Graphics & Text | Print | Product List | Glossary Off
Versions: 1 2 3 4 5 6 7 8 9 10 11 12 13 14 15 16 17 18 19 20 21 22 23 24 25 26 27 28 29 30 31 32 33 34 35 36 37 38 39 40 41 42 43 44 45 46 47 48 49 50

000
ASUS42 KMHX 260710
RWRMHX
WEATHER ROUNDUP FOR EASTERN NORTH CAROLINA
NATIONAL WEATHER SERVICE NEWPORT/MOREHEAD CITY NC
200 AM EST FRI DEC 26 2014

NOTE: "FAIR" INDICATES FEW OR NO CLOUDS BELOW 12,000 FEET
WITH NO SIGNIFICANT WEATHER AND/OR OBSTRUCTIONS TO VISIBILITY

NCZ015>017-031-032-045>047-102-103-260800-
NORTH COAST

CITY           SKY/WX    TMP DP  RH WIND       PRES   REMARKS
EDENTON          N/A     37  34  90 CALM      30.25S
ELIZABETH CITY CLEAR     43  34  70 CALM      30.25S
KITTY HAWK     SUNNY     47  40  79 CALM      30.24R
MANTEO         CLEAR     43  39  87 NW3       30.26R

$$

NCZ045>047-081-094-103-104-260800-
CENTRAL COAST

CITY           SKY/WX    TMP DP  RH WIND       PRES   REMARKS
FRISCO         CLEAR     46  41  82 CALM      30.25R
SWANQUARTER      N/A     39 N/A N/A CALM      30.21S

$$

NCZ095-097-098-100-101-260800-
SOUTHERN COAST

CITY           SKY/WX    TMP DP  RH WIND       PRES   REMARKS
BEAUFORT       CLEAR     38  37  97 CALM      30.26R
CEDAR ISLAND     N/A     48 N/A N/A NW2       30.30R
JACKSONVILLE   CLEAR     39  38  96 CALM      30.26R FOG
PINEY ISLAND   SUNNY     48  41  76 N3        30.25R
WILMINGTON     CLEAR     38  37  97 CALM      30.26R


$$

NCZ011>013-027>030-043-044-078>080-089-090>093-098-260800-
COASTAL PLAIN

CITY           SKY/WX    TMP DP  RH WIND       PRES   REMARKS
AHOSKIE        CLEAR     33  32  96 CALM      30.26S
CLINTON        CLEAR     36  36 100 CALM      30.28R
ELIZABETHTOWN  CLEAR     37  36  94 CALM      30.26R
GOLDSBORO      CLEAR     36  36  98 CALM      30.25R
GREENVILLE     CLEAR     36  36 100 CALM      30.27S FOG
HAVELOCK       CLEAR     38  36  92 CALM      30.27R
KENANSVILLE    CLEAR     33  33 100 CALM      30.28R
KINSTON        CLEAR     34  34  99 CALM      30.27R
NEW BERN       FOG       37  34  89 CALM      30.27S VSB 1/4
RICHLANDS      CLEAR     36  32  87 CALM      30.27R
ROCKY MOUNT    CLEAR     33  32  96 CALM      30.27R
WASHINGTON     CLEAR     35  34  94 CALM      30.27R
WHITEVILLE     CLEAR     38  37  96 CALM      30.26R

$$

AMZ130-135-150-152-154-156-158-170-250-252-270-ANZ085-086-088-633-658-670-260800-
MARINE OBSERVATIONS

STATION/POSITION TIME  TEMP    WIND        PRES    WAVE   SWELL
                       AIR SEA DIR/SP/G            HT/PER HT/PER
                 (UTC) (F)     (DEG/KT/KT) (MB)    (FT/S) (FT/S)
CHESAPEAKE LIGHT 0600   48     290/ 12/ 14 1024.5
64 E VA BEACH    0700   52 52  270/  6/  6 1023.7    3/ 8   3/ 8
DUCK             0700   49 50  300/  9/ 10 1023.4
2 E DUCK         0700      50                N/A     2/11
10 NE DUCK       0700      50                N/A     2/ 8
OREGON INLET     0700   48 54  300/  4/  5 1024.4
13E OREGON INLT  0700      51                N/A     3/ 8   2/11
HATTERAS CG      0700          340/  8/  9   N/A
DIAMOND BUOY     0700   55                 1024.2    5/ 8
17 S OCRACOKE    NOT AVBL
CAPE LOOKOUT     0600   51      10/  8/ 10 1024.1
BEAUFORT LAB     0700   46 55   10/  2/  2 1023.4
30 SE NEW RIVER  0700   56 60   50/ 12/ 14 1024.5    4/ 8   3/ 8
5 SE WRIGHTSVLE  NOT AVBL
225 S CAPE HAT   0555   68 74   20/ 10/ 12 1023.3    6/ 8   7/ 8
41 SE CHARLESTON 0700   59 71   40/  8/ 12 1023.9    3/ 8   2/ 8

$$



USA.gov is the U.S. government's official web portal to all federal, state and local government web resources and services.